Regional Weather Roundup
Issued by NWS

Home | Current Version | Previous Version | Graphics & Text | Print | Product List | Glossary On
Versions: 1 2 3 4 5 6 7 8 9 10 11 12 13 14 15 16 17 18 19 20 21 22 23 24 25 26 27 28 29 30 31 32 33 34 35 36 37 38 39 40 41 42 43 44 45 46 47 48 49 50
000
ASUS43 KMPX 300501
RWRMN
WEATHER ROUNDUP FOR MINNESOTA
NATIONAL WEATHER SERVICE TWIN CITIES/CHANHASSEN MN
1200 AM CDT TUE MAY 30 2017


NOTE: "FAIR" INDICATES FEW OR NO CLOUDS BELOW 12,000 FEET WITH NO
SIGNIFICANT WEATHER AND/OR OBSTRUCTIONS TO VISIBILITY. N/A MEANS
CURRENT SKY AND/OR WEATHER CONDITIONS ARE NOT AVAILABLE.

MNZ060>063-068>070-300600-
   Twin Cities Metro

CITY           SKY/WX    TMP DP  RH WIND       PRES   REMARKS
TWIN CITIES    MOCLDY    56  44  64 W9        29.87F
ST PAUL        PTCLDY    55  46  71 W9        29.87F
CRYSTAL        CLOUDY    55  44  66 W8        29.85F
BLAINE         PTCLDY    55  48  76 W3        29.86F
LAKEVILLE      PTCLDY    52  46  82 W6        29.88F
EDEN PRAIRIE   CLOUDY    56  45  66 SW6       29.87F
SOUTH ST PAUL  PTCLDY    56  44  65 W5        29.86F
LAKE ELMO      FAIR      54  46  76 W7        29.87F
$$
MNZ001>005-007-008-013>017-022>024-027-028-300600-
   Northwest Minnesota

CITY           SKY/WX    TMP DP  RH WIND       PRES   REMARKS
BEMIDJI        CLOUDY    42  42  97 NW12      29.84S
HALLOCK        CLOUDY    45  43  93 N17G23    29.89S
ROSEAU         DRIZZLE   45  39  81 NW12      29.85S
WARROAD        CLOUDY    43  39  87 W8        29.84S
CROOKSTON      LGT RAIN  45  45 100 N15       29.91S
FOSSTON        CLOUDY    43  39  87 NW12      29.88S
DETROIT LAKES  CLOUDY    46  43  87 NW13      29.90S
MOORHEAD       CLOUDY    50  45  81 N10       29.93R
PARK RAPIDS    CLOUDY    47  40  76 NW15      29.85S
MAHNOMEN       CLOUDY    45  43  94 NW13      29.88F
$$
MNZ006-009>011-018-025>026-300600-
   North Central Minnesota

CITY           SKY/WX    TMP DP  RH WIND       PRES   REMARKS
BAUDETTE       LGT RAIN  44  43  96 W13       29.80S FOG
FLAG ISLAND    CLOUDY    45  43  93 NW18      29.80S
INTL FALLS     CLOUDY    46  39  76 NW10      29.77S
WASKISH        CLOUDY    45  39  81 NW14      29.82S
BIG FORK       CLOUDY    46  37  71 NW6       29.79S
LONGVILLE      CLOUDY    46  43  87 W12       29.82S
GRAND RAPIDS   CLOUDY    47  43  86 W10       29.81S
CRANE LAKE     CLOUDY    46  39  76 CALM      29.77S
COOK           CLOUDY    48  39  71 W7        29.77S
WALKER         CLOUDY    44  41  88 NW10G20   29.83S
$$
MNZ012-019>021-037-300600-
   Northeast Minnesota

CITY           SKY/WX    TMP DP  RH WIND       PRES   REMARKS
DULUTH         CLOUDY    52  44  74 W9        29.75F
ELY            CLOUDY    46  39  76 NW7       29.75R
HIBBING        CLOUDY    48  40  73 NW10      29.77S
EVELETH        CLOUDY    50  39  65 NW10      29.77S
DULUTH HARBOR  CLOUDY    55  46  71 SW10      29.77S
TWO HARBORS    CLOUDY    54  46  76 W3        29.73S
SILVER BAY     CLOUDY    52  45  76 CALM      29.72S
GRAND MARAIS     N/A     49  42  77 W8        29.68S
G MARAIS ARPRT CLOUDY    46  37  71 W8G16     29.69S
$$
MNZ029>031-032-039>041-046>048-054>057-064-300600-
   West Central Minnesota

CITY           SKY/WX    TMP DP  RH WIND       PRES   REMARKS
FERGUS FALLS   CLOUDY    50  46  87 N9        29.90F
WHEATON        CLOUDY    54  45  71 W9        29.95S
MORRIS         CLOUDY    54  46  76 NW7       29.91S
ALEXANDRIA     CLOUDY    51  46  83 NW14G24   29.90S
ELBOW LAKE     CLOUDY    51  46  82 W13       29.92S
WADENA         CLOUDY    48  43  81 NW15      29.87S
GLENWOOD       CLEAR     50  46  87 W7        29.90S
APPLETON       CLOUDY    54  46  76 W5        29.93S
BENSON         CLOUDY    55  45  67 NW9       29.93S
ORTONVILLE     CLOUDY    55  43  62 NW6       29.93S
MADISON        CLOUDY    57  46  67 W6        29.94F
WILLMAR        CLOUDY    54  46  76 W7        29.93S
$$
MNZ033>034-036-042>043-049>051-058-059-300600-
   Central Minnesota

CITY           SKY/WX    TMP DP  RH WIND       PRES   REMARKS
ST CLOUD       CLOUDY    52  48  86 W10       29.87R
SAUK CENTRE    MOCLDY    49  46  90 W7        29.89S
PAYNESVILLE    PTCLDY    50  45  82 W6        29.90F
AITKIN         CLOUDY    50  41  71 W6        29.80S
PINE RIVER     CLOUDY    48  43  81 NW8G18    29.87S
BRAINERD       CLOUDY    50  43  77 W12       29.84S
STAPLES        CLOUDY    48  41  76 W13       29.86S
LONG PRAIRIE   CLOUDY    48  45  87 W7        29.88F
LITTLE FALLS   CLOUDY    52  43  71 W9        29.86F
LITCHFIELD     MOCLDY    55  46  71 W12       29.90F
BUFFALO        CLOUDY    55  44  68 W10G16    29.89R
MAPLE LAKE     CLOUDY    55  47  74 W12       29.89R
HUTCHINSON     CLOUDY    53  47  79 W9        29.91F
$$
MNZ037-044-045-052-053-300600-
   East Central Minnesota

CITY           SKY/WX    TMP DP  RH WIND       PRES   REMARKS
PRINCETON      CLOUDY    52  48  87 SW6       29.86S
MORA           CLOUDY    50  45  81 W5        29.85S
CAMBRIDGE      CLOUDY    55  45  67 W6        29.84R
RUSH CITY      MOCLDY    51  46  82 W6        29.84S
MOOSE LAKE     CLOUDY    50  45  81 W7        29.78F
HINCKLEY       CLOUDY    52  48  87 W5        29.82S
CLOQUET        CLOUDY    52  43  71 W6        29.77F
MCGREGOR       CLOUDY    52  41  66 W13G18    29.80S
$$
MNZ071>073-080-081-089-090-097-098-300600-
   Southwest Minnesota

CITY           SKY/WX    TMP DP  RH WIND       PRES   REMARKS
MONTEVIDEO     CLOUDY    55  45  67 NW6       29.93F
CANBY          CLOUDY    54  45  70 CALM      29.96F
MARSHALL       CLOUDY    52  45  77 W9        29.96S
REDWOOD FALLS  CLOUDY    53  42  66 W7        29.93S
OLIVIA         CLOUDY    54  45  71 NW7       29.92S
PIPESTONE      CLEAR     48  39  71 W5        29.99S
WINDOM         CLEAR     50  45  81 SW8       29.96F
WORTHINGTON    PTCLDY    48  44  86 W9        29.99S
JACKSON        CLEAR     50  45  81 CALM      29.98S
TRACY          MOCLDY    53  45  74 W6        29.96S
SLAYTON        CLEAR     49  42  76 W8        29.99S
$$
MNZ065>067-074>077-082>085-091>093-300600-
   South Central Minnesota

CITY           SKY/WX    TMP DP  RH WIND       PRES   REMARKS
MANKATO        PTCLDY    52  44  74 W8        29.93S
NEW ULM        PTCLDY    50  45  81 W7        29.93S
FAIRMONT       CLEAR     51  48  89 W9        29.96F
GLENCOE        MOCLDY    55  48  78 W7        29.90S
FARIBAULT      PTCLDY    54  46  76 SW8       29.91S
OWATONNA       CLEAR     52  45  76 W9        29.92R
WASECA         CLEAR     52  46  82 W7        29.94S
ALBERT LEA     CLEAR     55  48  76 W6        29.94S
$$
MNZ078>079-086>088-094>096-300600-
   Southeast Minnesota

CITY           SKY/WX    TMP DP  RH WIND       PRES   REMARKS
ROCHESTER      CLEAR     52  48  86 W10       29.91S
RED WING       PTCLDY    54  45  71 W3        29.86S
STANTON        CLOUDY    55  48  78 W6        29.88S
DODGE CENTER   CLEAR     52  46  82 W7        29.91S
WINONA         CLOUDY    55  46  71 W6        29.88S
AUSTIN         CLEAR     52  48  87 W7        29.92S
PRESTON        CLEAR     52  47  81 W12       29.91S
$$
ABBREVIATIONS USED IN REMARKS
   TC - TEMPERATURES IN CELSIUS
  WCI - WIND CHILL INDEX
   HX - HEAT INDEX
  VSB - VISIBILITY
$$




USA.gov is the U.S. government's official web portal to all federal, state and local government web resources and services.